Overview Statistics Trail Chart Weather Telemetry Raw packets
 

This is the latest recevied weather packets stored in our database for station/object SV9TNF-56. If no packets are shown the sender has not sent any weather packets the latest 10 day(s).

<< 36 37 38 39 40 41 42 >>
Time Temp. Humidity Pressure Rain* Wind** Luminosity Snow
1788415146 25° C 67% 1010.2 hPa 0 mm 17.88 m/s, 324° - -
1788414846 25° C 69% 1010.2 hPa 0 mm 7.15 m/s, 315° - -
1788414558 25.56° C 68% 1010.2 hPa 0 mm 21.46 m/s, 257° - -
1788414246 25.56° C 66% 1010.2 hPa 0 mm 2.68 m/s, 192° - -
1788413945 25.56° C 66% 1010.2 hPa 0 mm 8.94 m/s, 293° - -
1788413645 25.56° C 66% 1010.2 hPa 0 mm 15.2 m/s, 256° - -
1788413345 25.56° C 65% 1010.2 hPa 0 mm 24.59 m/s, 240° - -
1788413045 25° C 65% 1010.5 hPa 0 mm 5.36 m/s, 252° - -
1788412745 25° C 65% 1010.5 hPa 0 mm 8.05 m/s, 104° - -
1788412445 25° C 68% 1010.2 hPa 0 mm 5.36 m/s, 216° - -
1788412145 25.56° C 67% 1010.5 hPa 0 mm 11.18 m/s, 279° - -
1788411845 25.56° C 64% 1010.2 hPa 0 mm 8.05 m/s, 246° - -
1788411545 25.56° C 63% 1010.2 hPa 0 mm 12.96 m/s, 171° - -
1788411245 25.56° C 61% 1009.8 hPa 0 mm 4.92 m/s, 246° - -
1788410945 25.56° C 58% 1009.8 hPa 0 mm 5.36 m/s, 254° - -
1788410645 25.56° C 58% 1009.8 hPa 0 mm 16.99 m/s, 269° - -
1788410345 25.56° C 56% 1009.8 hPa 0 mm 12.52 m/s, 222° - -
1788410044 25° C 62% 1009.8 hPa 0 mm 13.41 m/s, 297° - -
1788409744 25° C 64% 1009.8 hPa 0 mm 15.2 m/s, 275° - -
1788409444 25° C 62% 1009.8 hPa 0 mm 20.56 m/s, 267° - -
1788409144 25° C 65% 1009.8 hPa 0 mm 16.54 m/s, 318° - -
1788408844 25° C 65% 1009.5 hPa 0 mm 17.88 m/s, 273° - -
1788408544 25° C 68% 1009.5 hPa 0 mm 19.67 m/s, 318° - -
1788408244 24.44° C 68% 1009.8 hPa 0 mm 17.88 m/s, 266° - -
1788407944 24.44° C 68% 1009.8 hPa 0 mm 24.59 m/s, 336° - -

* Rain latest hour (hover to see other rain measurements)
** Current wind speed in m/s (hover to see current wind gust speed)